Weather History for Alexandria, LA

Change the Weather History Date:

Thursday, February 16, 2012

  Actual Average Record
Temperature  
Mean Temperature 60 °F 52 °F  
Max Temperature 66 °F 63 °F 82 °F (1989)
Min Temperature 54 °F 41 °F 23 °F (1905)
Degree Days  
Heating Degree Days 5 13  
Month to date heating degree days 204 233  
Since 1 July heating degree days 1346 1524  
Growing Degree Days 10 (Base 50)    
Moisture  
Dew Point 57 °F    
Average Humidity 82    
Maximum Humidity 100    
Minimum Humidity 63    
Precipitation  
Precipitation 0.00 in 0.18 in 4.40 in (1903)
Month to date precipitation 9.75 2.49  
Year to date precipitation 15.11 7.71  
Snow  
Snow 0.00 in - 3.00 in (1899)
Month to date snowfall 0.0  
Since 1 July snowfall 0.0  
Snow Depth 0.00 in    
Sea Level Pressure  
Sea Level Pressure 30.09 in    
Wind  
Wind Speed 6 mph (North)    
Max Wind Speed 13 mph    
Max Gust Speed 15 mph    
Visibility 6 miles    
Events      
T = Trace of Precipitation, MM = Missing Value Source: NWS Daily Summary

Daily Weather History Graph

Daily Weather History Graph

Search for Another Location

Airport:

Trip Planner

Search our weather history database for the weather conditions in past years. The results will help you decide how hot, cold, wet, or windy it might be!

Date:

Astronomy

Feb. 16, 2012 Rise Set
Actual Time 6:51 AM CST 5:57 PM CST
Civil Twilight 6:26 AM CST 6:22 PM CST
Nautical Twilight 5:57 AM CST 6:51 PM CST
Astronomical Twilight 5:29 AM CST 7:19 PM CST
Moon 2:34 AM CST (2/16) 1:02 PM CST (2/16)
Length of Visible Light 11h 56m
Length of Day
11h 06m
Waning Crescent, 28% of the Moon is Illuminated
Feb 16
Waning Crescent
Feb 21
New
Feb 29
First Quarter
Mar 8
Full
Mar 14
Last Quarter

Hourly Weather History & Observations

Time (CST) Temp. Dew Point Humidity Pressure Visibility Wind Dir Wind Speed Gust Speed Precip Events Conditions
12:06 AM 62.6 °F 60.8 °F 94% 30.00 in 1.8 mi West 3.5 mph - N/A   Overcast
12:22 AM 62.6 °F 60.8 °F 94% 30.01 in 3.0 mi West 3.5 mph - N/A   Overcast
12:53 AM 62.1 °F 61.0 °F 96% 30.02 in 7.0 mi WNW 3.5 mph - N/A   Overcast
1:15 AM 62.6 °F 60.8 °F 94% 30.02 in 2.5 mi West 4.6 mph - N/A   Overcast
1:33 AM 62.6 °F 60.8 °F 94% 30.03 in 1.2 mi WNW 3.5 mph - N/A   Overcast
1:53 AM 61.0 °F 61.0 °F 100% 30.03 in 2.5 mi WNW 4.6 mph - N/A   Overcast
2:31 AM 60.8 °F 60.8 °F 100% 30.02 in 6.0 mi NW 5.8 mph - N/A   Overcast
2:53 AM 61.0 °F 60.1 °F 97% 30.04 in 8.0 mi NW 10.4 mph - N/A   Overcast
3:36 AM 60.8 °F 60.8 °F 100% 30.04 in 2.0 mi NW 6.9 mph - N/A   Overcast
3:48 AM 60.8 °F 60.8 °F 100% 30.04 in 4.0 mi NW 9.2 mph - N/A   Overcast
3:53 AM 60.1 °F 60.1 °F 100% 30.06 in 3.0 mi NW 6.9 mph - N/A   Overcast
3:59 AM 60.8 °F 60.8 °F 100% 30.04 in 1.8 mi NW 6.9 mph - N/A   Overcast
4:27 AM 60.8 °F 59.0 °F 94% 30.05 in 0.8 mi NNW 8.1 mph - N/A   Mist
4:45 AM 59.0 °F 59.0 °F 100% 30.06 in 1.2 mi NW 9.2 mph - N/A   Overcast
4:53 AM 59.0 °F 59.0 °F 100% 30.07 in 1.8 mi NW 12.7 mph - N/A   Overcast
5:13 AM 59.0 °F 59.0 °F 100% 30.07 in 0.8 mi NNW 5.8 mph - N/A   Mist
5:25 AM 59.0 °F 59.0 °F 100% 30.07 in 2.0 mi NW 11.5 mph - N/A   Overcast
5:38 AM 59.0 °F 59.0 °F 100% 30.08 in 1.2 mi NNW 6.9 mph - N/A   Overcast
5:53 AM 59.0 °F 59.0 °F 100% 30.08 in 1.0 mi NW 4.6 mph - N/A   Overcast
6:16 AM 59.0 °F 59.0 °F 100% 30.08 in 3.0 mi NNW 5.8 mph - N/A   Overcast
6:53 AM 59.0 °F 57.9 °F 96% 30.11 in 7.0 mi North 5.8 mph - N/A   Overcast
7:53 AM 60.1 °F 57.9 °F 93% 30.14 in 7.0 mi North 4.6 mph - N/A   Overcast
8:29 AM 60.8 °F 57.2 °F 88% 30.14 in 7.0 mi NNE 3.5 mph - N/A   Overcast
8:53 AM 61.0 °F 57.0 °F 87% 30.17 in 8.0 mi NNE 6.9 mph - N/A   Overcast
9:35 AM 62.6 °F 57.2 °F 82% 30.17 in 9.0 mi NE 3.5 mph - N/A   Overcast
9:53 AM 62.1 °F 57.0 °F 84% 30.19 in 9.0 mi NNE 4.6 mph - N/A   Overcast
10:53 AM 62.1 °F 55.0 °F 78% 30.19 in 10.0 mi NE 6.9 mph - N/A   Overcast
11:53 AM 62.1 °F 55.0 °F 78% 30.19 in 9.0 mi NE 5.8 mph - N/A   Overcast
12:53 PM 63.0 °F 54.0 °F 72% 30.14 in 10.0 mi North 8.1 mph - N/A   Mostly Cloudy
1:37 PM 64.4 °F 55.4 °F 73% 30.11 in 10.0 mi Variable 5.8 mph - N/A   Scattered Clouds
1:53 PM 64.9 °F 55.0 °F 70% 30.12 in 10.0 mi NE 8.1 mph - N/A   Scattered Clouds
2:53 PM 66.0 °F 53.1 °F 63% 30.12 in 10.0 mi ENE 5.8 mph - N/A   Clear
3:53 PM 64.9 °F 52.0 °F 63% 30.11 in 10.0 mi ENE 4.6 mph - N/A   Clear
4:53 PM 64.0 °F 52.0 °F 65% 30.13 in 10.0 mi ENE 3.5 mph - N/A   Clear
5:53 PM 62.1 °F 53.1 °F 72% 30.13 in 10.0 mi NE 4.6 mph - N/A   Clear
6:53 PM 61.0 °F 53.1 °F 75% 30.13 in 10.0 mi NE 4.6 mph - N/A   Clear
7:53 PM 59.0 °F 52.0 °F 78% 30.12 in 10.0 mi NE 6.9 mph - N/A   Clear
8:53 PM 57.9 °F 48.9 °F 72% 30.14 in 10.0 mi NE 5.8 mph - N/A   Clear
9:53 PM 57.0 °F 48.0 °F 72% 30.16 in 10.0 mi NE 4.6 mph - N/A   Clear
10:53 PM 55.0 °F 48.9 °F 80% 30.14 in 10.0 mi NE 6.9 mph - N/A   Clear
11:53 PM 54.0 °F 48.9 °F 83% 30.13 in 10.0 mi ENE 6.9 mph - N/A   Clear